Temperature
0 1 1 1 2 1 1 1 2 2 2 2 2 1 1 1 1 1 2 2 3 3 3 4 4 4 4 5 5 5 5 5 5 5 5 4 4 4 4 4 4 4 4 4
-0 1 1 1 2 2 2 2 1 1 1 1 1 1 1 1 1 1 1 2 2 2 3 3 3 4 4 4 4 4 4 4 4 4 4 4 4 4 4 4 4 3 3 3
-1 -0 1 0 1 1 1 1 1 1 1 0 0 0 0 0 1 1 1 2 2 2 2 3 3 3 3 3 3 3 3 3 3 3 3 3 3 3 3 3 3 3 3 3
-1 -1 -0 0 0 1 1 0 0 0 0 -0 0 -0 0 1 1 1 1 1 2 2 2 2 2 2 3 3 3 3 3 3 3 3 3 3 3 3 3 3 3 2 2 2
-3 -2 -1 -0 -0 -1 -1 -1 -1 -1 -1 -1 -0 -0 -1 0 0 1 1 1 1 1 2 2 2 2 2 2 2 2 2 2 2 2 2 2 2 2 2 2 2 2 2 1
-3 -2 -1 -1 -1 -1 -0 -1 -1 -1 -1 -1 -1 -1 -1 -0 0 0 0 0 0 1 1 1 1 1 1 1 1 1 2 2 1 1 1 1 1 1 1 1 1 1 1 1
-4 -3 -2 -2 -2 -1 -1 -1 -1 -1 -1 -1 -1 -1 -1 -1 -0 -0 -0 -0 -0 0 0 0 1 1 1 1 1 1 1 1 1 1 1 1 1 1 0 0 0 0 0 0
-4 -3 -3 -3 -3 -2 -2 -2 -2 -2 -2 -2 -2 -2 -1 -1 -1 -1 -1 -1 -1 -0 -0 -0 -0 0 0 0 0 0 0 0 0 0 -0 -0 0 0 -0 -0 -0 -0 -0 -0
-4 -4 -4 -4 -3 -3 -2 -3 -2 -2 -2 -2 -2 -2 -2 -2 -2 -1 -1 -1 -1 -1 -1 -1 -1 -1 -1 -0 -0 -0 -0 -0 -0 -1 -1 -1 -1 -0 -1 -1 -1 -1 -1 -1
-5 -5 -4 -4 -3 -3 -3 -3 -2 -2 -2 -2 -3 -3 -2 -2 -2 -2 -2 -2 -2 -1 -1 -1 -1 -1 -1 -1 -1 -1 -1 -1 -1 -1 -1 -1 -1 -1 -1 -1 -1 -2 -2 -2
-5 -5 -4 -4 -4 -3 -3 -3 -3 -3 -3 -3 -3 -3 -3 -3 -3 -2 -2 -2 -2 -2 -2 -2 -2 -2 -2 -2 -2 -1 -1 -1 -1 -1 -1 -1 -1 -2 -2 -2 -2 -3 -3 -3
-5 -5 -5 -5 -4 -4 -3 -3 -3 -3 -3 -3 -3 -3 -3 -3 -3 -3 -3 -3 -3 -3 -3 -3 -3 -2 -2 -2 -2 -2 -2 -2 -2 -2 -2 -2 -2 -2 -3 -3 -3 -3 -3 -3
-5 -5 -5 -5 -5 -4 -4 -4 -4 -4 -4 -4 -4 -4 -4 -4 -4 -4 -3 -3 -3 -3 -3 -3 -3 -3 -3 -3 -3 -3 -2 -2 -2 -2 -3 -3 -3 -3 -3 -3 -3 -3 -3 -3
-5 -5 -5 -5 -5 -5 -4 -4 -4 -4 -4 -4 -4 -4 -4 -4 -4 -4 -4 -4 -4 -4 -4 -4 -3 -3 -3 -3 -3 -3 -3 -3 -3 -3 -3 -3 -3 -3 -4 -4 -3 -3 -3 -4
-6 -6 -6 -6 -5 -5 -5 -5 -5 -5 -5 -5 -5 -5 -5 -5 -4 -4 -4 -5 -4 -4 -4 -4 -4 -4 -4 -4 -4 -4 -3 -3 -3 -4 -4 -4 -4 -4 -4 -4 -4 -4 -4 -4
-6 -6 -6 -6 -6 -6 -6 -5 -5 -5 -5 -5 -5 -5 -5 -5 -5 -5 -5 -5 -5 -5 -5 -5 -5 -4 -4 -4 -4 -4 -4 -4 -4 -4 -4 -4 -5 -5 -5 -5 -5 -5 -5 -5
-7 -7 -7 -7 -6 -6 -6 -6 -6 -6 -6 -6 -6 -6 -6 -6 -5 -5 -5 -6 -5 -5 -5 -5 -5 -5 -5 -5 -5 -5 -5 -5 -5 -5 -5 -5 -5 -5 -5 -5 -5 -5 -5 -5
-7 -7 -7 -7 -7 -7 -7 -6 -6 -6 -6 -6 -6 -6 -6 -6 -6 -6 -6 -6 -6 -6 -6 -6 -6 -6 -5 -5 -5 -5 -5 -5 -6 -6 -6 -6 -6 -6 -6 -6 -6 -6 -5 -5
-7 -7 -7 -7 -7 -7 -7 -7 -7 -7 -7 -7 -7 -7 -6 -6 -6 -6 -6 -6 -6 -6 -6 -6 -6 -6 -6 -6 -6 -6 -6 -6 -6 -6 -6 -6 -6 -7 -7 -6 -6 -6 -6 -6
-7 -7 -7 -8 -8 -8 -7 -7 -7 -7 -7 -7 -7 -7 -7 -7 -7 -7 -7 -7 -7 -7 -7 -7 -7 -7 -7 -7 -7 -7 -7 -7 -7 -7 -7 -7 -7 -7 -7 -7 -6 -6 -6 -6
-8 -8 -8 -8 -8 -8 -8 -8 -8 -8 -8 -8 -8 -8 -7 -7 -7 -7 -7 -7 -7 -7 -7 -7 -7 -7 -7 -7 -7 -7 -7 -7 -7 -7 -7 -7 -7 -7 -7 -7 -6 -6 -7 -7
-8 -8 -8 -8 -8 -8 -8 -8 -8 -8 -8 -8 -8 -8 -8 -8 -8 -8 -8 -8 -8 -8 -8 -8 -7 -7 -7 -8 -7 -7 -7 -7 -7 -7 -7 -7 -7 -7 -7 -7 -7 -7 -7 -7
-9 -9 -9 -9 -9 -9 -9 -9 -9 -9 -8 -8 -8 -8 -8 -8 -8 -8 -8 -8 -8 -8 -8 -8 -8 -8 -8 -8 -8 -8 -8 -8 -8 -8 -8 -7 -7 -7 -7 -7 -7 -7 -7 -7
-9 -9 -9 -9 -9 -9 -9 -9 -9 -9 -9 -9 -9 -9 -9 -9 -9 -9 -9 -9 -9 -9 -8 -8 -8 -8 -8 -8 -8 -8 -8 -8 -8 -8 -8 -8 -8 -7 -7 -7 -7 -7 -7 -7
-9 -9 -9 -9 -9 -10 -10 -10 -9 -9 -9 -9 -9 -9 -9 -9 -9 -9 -9 -9 -9 -9 -9 -8 -8 -8 -8 -8 -8 -8 -8 -8 -8 -8 -8 -8 -8 -8 -7 -7 -7 -7 -7 -7
-10 -10 -10 -10 -10 -10 -10 -10 -10 -10 -10 -10 -9 -9 -9 -10 -9 -9 -9 -9 -9 -9 -9 -9 -9 -9 -9 -9 -8 -8 -8 -8 -8 -8 -8 -8 -8 -8 -8 -8 -8 -8 -8 -7
-10 -10 -10 -10 -10 -10 -10 -10 -10 -10 -10 -10 -10 -10 -10 -10 -10 -10 -9 -9 -9 -9 -9 -9 -9 -9 -9 -9 -9 -9 -9 -8 -8 -8 -8 -8 -8 -8 -8 -8 -8 -8 -8 -8
Wind_Speed
1 1 2 2 4 5 5 6 6 6 5 6 3 2 1 2 3 4 4 4 3 3 3 3 3 3 3 3 3 3 3 3 2 1 1 1 1 1 1 1 2 2 2 2
1 1 1 1 3 4 5 4 4 4 6 3 1 2 2 3 4 4 3 2 2 3 3 2 2 2 2 2 2 3 3 2 2 2 2 2 1 1 1 2 2 2 2 2
1 0 2 3 4 5 3 3 5 7 5 2 1 3 3 3 3 3 3 2 2 1 1 1 1 1 2 2 2 3 3 2 3 2 2 2 2 2 2 2 2 2 2 2
2 3 3 4 1 2 3 2 3 2 2 3 3 2 1 1 3 3 3 2 2 2 2 2 2 2 2 3 3 3 3 3 3 2 2 2 2 2 2 2 2 2 3 3
2 2 3 4 2 1 2 2 2 3 3 3 4 4 3 2 2 3 2 2 2 2 2 2 3 2 3 3 3 3 3 3 3 2 2 3 3 3 2 2 2 2 3 3
2 3 4 3 3 2 2 2 2 3 4 4 3 2 2 0 3 3 3 3 3 3 3 3 3 3 3 3 3 3 3 3 3 2 2 3 3 3 2 2 2 2 3 3
2 2 4 4 5 0 3 4 3 0 2 2 1 2 2 2 2 3 3 3 3 3 3 2 2 3 3 3 3 3 3 3 3 3 2 3 3 2 2 2 2 2 3 3
2 2 4 5 2 2 3 2 3 2 1 2 2 3 3 3 3 3 3 3 3 2 2 3 2 2 2 3 3 4 3 3 3 3 3 3 3 3 2 2 2 3 3 3
3 3 2 2 1 2 1 1 2 2 2 2 2 2 2 2 2 2 2 2 2 1 2 2 2 2 1 3 4 3 3 4 3 4 3 3 2 2 2 1 1 2 2 3
1 2 3 3 3 4 3 2 2 1 1 2 2 1 1 1 1 1 2 2 2 2 2 3 3 2 2 3 3 2 3 3 3 3 3 3 2 2 2 2 2 2 3 3
1 3 3 4 4 3 4 4 4 4 2 2 2 1 1 1 1 1 2 2 2 1 2 3 3 3 4 3 3 3 3 3 3 3 3 3 3 2 3 3 2 2 3 3
2 2 2 3 4 4 3 4 3 3 4 3 2 1 1 1 1 1 1 2 2 2 2 3 3 4 4 4 2 2 3 3 2 2 2 2 2 3 4 3 4 4 4 4
2 2 2 3 4 4 3 3 3 3 2 2 2 1 1 1 1 1 1 2 1 2 2 3 3 4 4 4 3 2 3 3 3 3 2 2 2 2 3 4 5 5 5 5
2 2 2 2 3 4 3 3 3 3 3 2 2 2 2 2 2 2 2 2 2 2 2 3 4 4 4 4 3 3 3 4 3 2 2 2 2 2 2 3 4 3 5 6
4 2 1 2 3 4 3 3 3 3 3 3 2 2 2 2 2 3 3 2 2 2 3 3 4 5 5 4 4 3 3 2 2 2 2 2 2 2 2 2 3 3 3 4
4 3 2 2 3 4 4 3 3 3 3 2 2 2 2 2 2 2 3 2 2 3 4 4 5 6 5 4 4 3 3 4 4 2 2 2 2 2 2 2 2 3 3 3
2 2 3 3 4 4 4 3 3 3 3 2 3 3 2 2 2 2 3 3 3 3 4 4 5 6 5 4 3 3 2 3 4 3 2 2 2 2 2 2 3 3 3 4
2 3 3 3 3 4 4 4 3 3 3 3 3 2 2 1 2 3 4 4 4 4 5 4 5 5 4 4 3 2 2 2 2 2 2 2 2 2 2 2 3 3 3 4
2 2 2 3 3 3 3 4 4 3 3 2 2 2 2 2 2 3 3 3 4 5 5 5 7 5 4 5 4 2 2 2 2 2 2 3 3 2 2 2 2 3 3 3
3 3 2 2 3 2 3 4 3 3 2 2 2 2 2 3 2 3 3 3 4 4 5 5 5 4 4 4 5 2 1 1 1 1 1 1 2 2 2 2 2 3 3 3
3 3 3 3 3 3 3 3 3 3 3 2 2 2 3 3 3 2 2 4 4 4 4 6 4 3 3 4 4 1 1 1 1 1 1 2 2 2 2 2 2 3 3 3
3 2 3 3 3 4 4 3 2 2 3 2 2 2 2 3 3 3 3 3 4 6 4 3 3 4 5 4 2 1 1 1 1 1 1 1 2 2 2 2 2 3 2 2
2 2 2 2 3 3 4 3 3 2 2 3 3 2 3 3 3 2 3 3 3 5 4 3 4 6 6 3 1 1 1 1 1 1 2 2 2 2 2 3 2 2 2 2
2 2 2 2 2 2 3 4 3 3 2 3 3 3 3 2 3 2 3 5 6 6 3 4 6 6 5 2 1 1 1 1 1 1 1 1 2 2 2 2 2 2 2 3
2 2 2 2 2 2 3 4 3 3 3 3 3 3 2 2 2 3 3 3 5 5 4 5 6 6 4 2 2 1 1 1 1 1 1 1 2 2 2 2 2 2 2 3
2 2 2 2 2 2 2 2 2 3 3 3 3 3 3 2 2 2 2 3 3 5 4 3 3 4 2 2 2 2 2 2 2 2 2 2 2 2 2 2 2 2 3 3
2 2 2 2 2 2 2 2 2 3 2 2 3 3 3 3 2 3 3 3 3 3 3 3 2 2 2 2 2 2 2 2 1 1 1 2 2 2 2 2 2 2 3 3
Wind_Direction
218 205 161 196 201 188 194 197 203 229 236 259 257 222 163 131 111 98 87 80 79 77 65 56 54 56 63 55 54 70 74 63 45 38 44 33 4 334 323 316 312 298 294 301
12 63 139 241 223 205 212 205 212 236 265 264 210 109 116 129 125 117 104 83 69 61 64 60 56 61 61 50 42 62 66 48 33 33 34 20 355 345 340 334 330 330 319 308
244 359 75 258 241 207 197 202 189 223 233 172 134 155 165 164 154 148 137 109 84 68 65 59 58 74 73 50 47 57 53 37 30 31 27 4 357 6 346 333 339 333 326 324
133 99 204 251 298 182 180 234 220 204 181 178 175 154 104 135 153 146 133 115 88 71 48 30 40 49 55 52 49 51 43 25 19 29 20 6 3 353 339 337 337 324 316 311
131 167 263 299 322 121 165 280 255 192 183 156 119 82 31 25 122 134 123 103 81 57 54 44 40 47 61 45 38 39 22 5 356 8 3 357 352 339 331 340 336 325 318 309
128 153 222 261 310 303 118 286 297 185 182 157 127 151 246 71 101 97 84 77 67 51 50 47 29 46 62 39 29 12 351 340 340 352 347 333 322 314 313 316 313 316 318 312
153 194 260 296 302 15 155 245 320 274 180 161 198 208 153 111 82 89 84 72 62 53 45 24 21 49 51 32 1 338 338 341 346 345 333 320 316 308 307 313 322 317 316 321
147 182 257 326 24 149 231 309 352 6 57 106 85 78 84 85 83 77 71 61 54 49 20 8 26 47 32 357 334 338 343 346 346 346 341 337 332 321 319 325 334 330 329 333
186 210 277 316 270 300 292 323 335 346 6 89 99 83 66 61 73 71 69 52 40 52 14 4 15 32 5 326 333 341 346 343 341 341 337 333 328 324 323 331 332 320 325 325
242 291 301 333 340 355 6 347 344 8 49 86 102 95 64 54 47 47 40 25 22 36 13 349 353 356 327 319 329 333 328 323 324 326 325 330 326 317 312 307 301 304 307 306
278 299 328 356 0 355 14 21 24 29 42 85 110 96 65 13 2 9 10 359 9 13 345 330 337 338 334 333 334 331 322 317 320 320 315 322 321 308 301 278 271 288 293 292
251 289 279 304 333 356 18 15 19 33 35 40 67 77 39 22 4 358 353 356 353 345 336 331 334 330 328 325 317 310 315 318 315 312 310 310 316 324 324 312 324 323 318 313
274 312 285 299 346 2 8 4 13 30 36 21 21 37 32 14 6 0 353 354 342 329 324 323 325 321 320 318 311 296 288 297 300 300 298 303 308 314 320 336 344 343 339 335
338 352 342 342 344 356 3 1 20 30 27 20 16 21 27 16 2 4 351 340 335 333 326 319 316 312 309 307 304 295 286 293 295 286 285 288 289 293 297 306 320 328 338 340
354 357 282 316 357 3 360 7 22 16 13 11 17 16 11 357 338 333 331 331 340 339 326 319 315 311 312 308 306 299 293 286 282 281 284 287 290 294 296 296 298 305 319 329
334 2 7 7 0 356 358 358 359 343 341 344 345 340 333 320 316 325 329 333 331 321 317 315 311 310 313 311 309 305 297 297 300 294 296 299 297 295 293 290 292 296 304 312
339 333 338 337 335 333 330 323 315 309 318 319 313 317 329 339 338 330 326 326 316 303 301 300 302 310 313 309 305 302 298 301 306 308 301 294 291 286 284 284 289 293 297 303
257 265 277 278 289 305 315 321 322 318 308 301 309 321 322 311 300 306 316 324 326 321 311 301 302 312 313 311 303 289 282 284 288 284 290 291 289 284 284 283 287 292 303 311
322 303 299 300 295 294 303 311 312 311 310 312 309 306 295 294 296 302 310 316 315 311 311 311 320 328 319 314 316 294 279 276 284 294 297 291 298 296 288 283 284 288 296 303
345 342 339 335 331 316 312 314 316 317 313 304 304 313 315 310 306 305 307 298 284 278 289 304 313 310 308 307 313 294 274 267 271 284 293 295 294 293 288 285 284 288 292 293
336 339 342 339 335 334 324 317 317 315 317 314 298 292 295 300 301 295 297 301 302 303 308 313 319 311 309 309 311 298 269 260 261 267 276 280 286 294 291 285 283 286 288 289
326 329 329 331 337 332 330 328 320 316 319 319 312 301 303 310 315 310 286 274 295 315 323 314 311 310 316 317 311 294 275 268 268 268 269 274 279 287 293 294 289 286 285 287
319 319 323 326 321 321 331 336 329 322 315 308 304 299 293 294 298 300 310 310 310 317 325 313 317 323 327 328 320 303 285 280 278 273 272 277 280 283 286 288 289 292 292 292
319 321 320 323 332 340 335 330 331 329 318 310 305 297 295 305 313 298 283 308 322 325 326 321 329 333 337 346 356 344 319 297 285 285 288 288 285 283 283 284 288 294 297 296
303 308 320 333 335 320 311 320 331 334 335 333 330 326 316 290 282 304 314 314 321 329 330 328 334 339 346 354 359 343 328 317 299 293 290 290 287 284 287 291 295 298 299 296
294 296 292 284 280 288 299 311 317 321 332 334 332 333 331 324 310 308 315 319 322 328 334 330 330 335 345 350 346 339 334 327 330 334 328 318 309 303 301 305 305 300 298 297
290 291 299 307 304 295 296 300 302 309 313 312 313 319 324 325 326 327 327 329 332 332 330 331 331 332 334 337 340 336 333 331 330 323 315 308 303 301 302 305 306 304 307 309
Height
1451 1450 1451 1451 1452 1454 1456 1457 1460 1458 1458 1454 1454 1454 1454 1454 1454 1455 1456 1458 1458 1459 1460 1462 1463 1464 1465 1466 1467 1468 1469 1470 1471 1472 1473 1473 1474 1474 1474 1473 1473 1472 1471 1470
1453 1450 1450 1451 1450 1451 1452 1454 1455 1456 1456 1453 1453 1453 1454 1454 1455 1456 1457 1458 1459 1460 1460 1461 1462 1463 1464 1465 1466 1467 1468 1468 1469 1470 1470 1470 1470 1470 1470 1470 1469 1469 1468 1467
1456 1453 1451 1455 1451 1450 1450 1450 1451 1452 1452 1453 1453 1453 1454 1454 1454 1455 1457 1458 1459 1459 1460 1461 1462 1463 1464 1465 1465 1466 1466 1466 1467 1467 1468 1468 1467 1467 1467 1466 1466 1465 1464 1463
1458 1458 1461 1454 1449 1448 1449 1449 1449 1449 1450 1451 1452 1453 1453 1454 1454 1455 1456 1458 1459 1459 1460 1461 1462 1462 1463 1464 1464 1464 1464 1465 1465 1465 1465 1465 1464 1464 1464 1463 1462 1462 1461 1460
1462 1462 1458 1453 1450 1450 1451 1451 1449 1449 1449 1451 1451 1452 1454 1455 1455 1456 1456 1457 1458 1459 1460 1461 1461 1462 1462 1463 1463 1463 1463 1463 1463 1463 1462 1462 1462 1461 1460 1460 1459 1459 1458 1457
1463 1461 1459 1454 1451 1449 1451 1453 1449 1448 1448 1449 1450 1454 1455 1455 1455 1456 1457 1457 1458 1459 1459 1460 1461 1461 1461 1461 1461 1461 1461 1461 1461 1461 1460 1459 1459 1458 1458 1457 1456 1456 1455 1454
1463 1464 1459 1455 1451 1449 1456 1454 1450 1448 1448 1449 1450 1451 1453 1453 1454 1455 1456 1457 1458 1458 1458 1459 1460 1460 1460 1460 1460 1460 1460 1459 1459 1459 1458 1457 1457 1456 1455 1454 1454 1453 1452 1451
1464 1464 1462 1454 1451 1454 1453 1450 1449 1448 1448 1448 1449 1450 1451 1452 1453 1454 1455 1456 1457 1457 1458 1458 1458 1458 1458 1458 1458 1458 1458 1457 1457 1457 1456 1455 1454 1453 1453 1452 1451 1450 1449 1448
1463 1462 1458 1455 1453 1452 1451 1450 1449 1449 1449 1449 1450 1450 1451 1452 1453 1454 1455 1455 1456 1456 1456 1457 1457 1457 1457 1457 1457 1456 1456 1455 1455 1454 1454 1453 1452 1451 1450 1449 1448 1447 1446 1445
1460 1458 1456 1454 1453 1452 1451 1450 1450 1449 1449 1449 1449 1450 1451 1451 1452 1453 1454 1454 1454 1455 1455 1455 1455 1455 1455 1455 1454 1454 1453 1453 1452 1452 1451 1450 1450 1449 1448 1447 1445 1444 1443 1442
1460 1457 1455 1453 1453 1452 1451 1450 1450 1449 1449 1449 1449 1450 1450 1451 1451 1452 1452 1453 1453 1453 1453 1453 1453 1453 1453 1453 1452 1451 1451 1450 1450 1449 1448 1447 1446 1446 1445 1444 1443 1442 1442 1441
1459 1457 1457 1455 1454 1453 1451 1451 1450 1450 1449 1450 1450 1450 1450 1450 1450 1451 1451 1451 1452 1451 1451 1451 1451 1451 1451 1450 1449 1449 1448 1447 1446 1445 1445 1444 1443 1442 1442 1442 1441 1440 1439 1439
1457 1456 1455 1454 1453 1453 1452 1451 1451 1450 1450 1449 1450 1450 1449 1449 1450 1450 1450 1450 1450 1450 1449 1449 1449 1449 1448 1447 1447 1446 1445 1444 1443 1442 1441 1440 1439 1439 1438 1438 1438 1437 1436 1435
1456 1456 1454 1454 1453 1452 1452 1451 1451 1450 1450 1450 1449 1449 1449 1449 1449 1449 1449 1448 1448 1448 1447 1447 1446 1446 1446 1445 1444 1443 1442 1441 1440 1439 1438 1437 1437 1436 1435 1434 1433 1433 1433 1433
1455 1455 1454 1453 1452 1452 1451 1451 1450 1449 1449 1449 1449 1448 1448 1448 1447 1447 1447 1447 1446 1446 1445 1445 1444 1444 1443 1442 1441 1440 1439 1438 1438 1437 1436 1435 1434 1433 1432 1431 1431 1430 1430 1429
1454 1454 1453 1452 1451 1451 1450 1450 1449 1448 1448 1448 1447 1447 1447 1447 1446 1446 1446 1445 1444 1443 1443 1442 1441 1441 1440 1439 1438 1437 1436 1436 1435 1434 1433 1432 1431 1430 1429 1429 1428 1427 1427 1426
1453 1452 1451 1451 1450 1450 1449 1449 1448 1447 1446 1446 1445 1445 1445 1445 1444 1444 1444 1443 1443 1441 1441 1440 1439 1438 1437 1436 1435 1434 1433 1433 1432 1431 1430 1429 1429 1428 1427 1426 1426 1425 1425 1424
1452 1452 1451 1450 1450 1449 1448 1447 1446 1445 1445 1444 1444 1443 1443 1443 1442 1442 1441 1441 1440 1439 1438 1437 1436 1435 1434 1434 1433 1432 1431 1430 1429 1429 1428 1427 1426 1425 1425 1424 1423 1423 1422 1422
1450 1450 1449 1449 1448 1447 1446 1445 1444 1444 1443 1442 1442 1441 1441 1441 1440 1440 1439 1438 1437 1436 1435 1435 1434 1432 1431 1431 1430 1429 1428 1428 1427 1426 1425 1424 1424 1423 1423 1422 1421 1421 1420 1419
1449 1448 1447 1447 1446 1446 1444 1444 1443 1442 1441 1440 1440 1439 1439 1438 1438 1437 1437 1436 1435 1434 1433 1431 1430 1430 1429 1428 1427 1427 1426 1425 1424 1424 1423 1422 1422 1421 1421 1420 1419 1419 1418 1417
1447 1446 1446 1445 1444 1443 1443 1442 1441 1440 1439 1438 1438 1437 1436 1436 1436 1435 1434 1433 1432 1432 1430 1429 1428 1427 1427 1426 1425 1424 1424 1423 1422 1422 1421 1420 1420 1419 1419 1418 1417 1417 1416 1415
1446 1445 1444 1443 1442 1441 1441 1440 1439 1438 1437 1436 1436 1435 1435 1434 1433 1433 1432 1431 1430 1429 1428 1427 1426 1425 1425 1424 1423 1422 1422 1421 1420 1420 1419 1419 1418 1417 1417 1416 1415 1415 1414 1413
1445 1444 1443 1442 1441 1440 1439 1438 1437 1436 1435 1435 1434 1433 1433 1432 1431 1430 1429 1429 1428 1427 1426 1425 1424 1423 1423 1422 1421 1420 1420 1419 1419 1418 1418 1417 1416 1415 1415 1414 1414 1413 1412 1411
1443 1442 1441 1441 1440 1438 1437 1436 1436 1435 1434 1433 1432 1432 1431 1430 1429 1429 1428 1427 1426 1425 1424 1423 1422 1421 1421 1420 1419 1419 1418 1418 1417 1417 1416 1415 1414 1414 1413 1413 1412 1411 1410 1410
1442 1441 1440 1439 1438 1437 1436 1435 1434 1433 1432 1431 1431 1430 1430 1429 1428 1427 1426 1425 1424 1423 1422 1421 1420 1420 1419 1419 1418 1418 1417 1416 1415 1415 1414 1413 1413 1412 1412 1411 1410 1409 1408 1408
1440 1439 1438 1438 1437 1436 1435 1434 1433 1432 1431 1430 1429 1428 1428 1427 1426 1425 1424 1423 1422 1421 1420 1419 1419 1419 1418 1417 1417 1416 1415 1414 1414 1413 1412 1412 1411 1411 1410 1409 1408 1408 1407 1406
1438 1437 1437 1436 1435 1435 1434 1433 1432 1431 1430 1429 1427 1427 1426 1425 1424 1423 1422 1421 1421 1420 1419 1418 1418 1417 1417 1416 1416 1415 1414 1413 1412 1412 1411 1411 1410 1409 1408 1408 1407 1406 1405 1404